RH
17 17 19 17 18 16 17 20 45 64 60 68 80 87 87 82 83 87 80 73 70 65 66 67 60 55 51 49 49 53 48 42 45 42 52 49 55 52 54 58 56 57 56 58
19 19 16 16 17 18 18 30 52 63 62 63 75 91 84 79 83 81 74 71 65 61 59 56 56 53 54 57 57 52 51 45 45 47 48 52 50 52 57 57 56 56 52 57
17 15 17 17 19 20 21 23 52 50 65 62 70 85 81 83 78 71 65 62 58 60 58 57 58 62 59 57 58 57 48 47 47 44 48 48 51 49 46 47 47 53 56 54
16 16 18 18 18 18 22 18 38 63 59 67 59 64 78 81 82 77 70 64 59 60 60 59 58 59 59 60 61 54 46 49 47 45 53 52 46 42 46 46 45 45 49 52
16 21 20 20 18 18 28 36 50 52 49 54 59 50 73 74 86 81 70 62 58 64 55 57 56 60 62 61 61 56 49 49 48 48 43 46 43 43 44 45 50 49 50 52
17 15 15 14 16 24 35 42 32 28 36 40 50 46 59 81 73 70 65 60 63 59 57 58 61 64 62 64 63 48 54 51 48 45 39 45 47 47 44 47 48 49 52 54
18 16 14 13 24 29 23 24 41 39 43 38 50 50 55 58 58 58 63 60 62 57 57 56 56 58 70 72 64 52 54 52 50 44 36 39 49 48 47 50 48 52 51 50
19 19 15 13 16 24 24 18 24 24 32 44 50 53 56 70 59 56 56 58 59 59 58 56 58 66 76 75 52 54 50 52 50 38 43 44 42 48 48 48 50 49 50 54
22 20 15 16 13 14 19 21 25 49 58 51 52 60 62 67 71 68 66 62 61 60 58 58 62 75 75 76 55 52 48 51 42 39 44 47 50 53 49 50 44 40 42 47
24 24 20 18 18 19 18 25 30 38 48 48 60 60 52 74 74 71 70 65 62 61 60 60 68 75 77 59 54 47 45 42 36 42 48 50 54 50 51 45 41 45 46 47
23 24 23 19 22 20 20 25 38 38 46 38 42 57 59 57 63 68 65 61 61 62 61 62 72 75 75 56 51 48 46 37 40 48 51 54 54 50 52 45 48 52 54 53
27 34 32 21 22 19 18 24 27 26 40 65 50 63 61 59 56 59 60 61 59 62 60 67 72 67 58 55 47 44 38 39 45 51 53 55 53 52 52 51 54 57 58 54
32 36 31 23 20 19 24 26 34 43 47 56 38 61 58 57 58 57 61 62 64 64 65 72 76 80 75 57 46 37 40 45 50 50 52 53 57 51 53 55 58 61 60 56
44 42 36 29 27 25 31 31 29 27 30 56 50 73 67 62 64 64 64 64 64 64 68 71 74 72 72 48 40 39 44 51 51 51 51 52 57 53 53 57 61 62 62 58
39 42 40 38 30 34 37 34 39 45 49 38 61 60 60 59 62 63 64 66 66 67 70 72 70 63 48 43 41 43 48 48 51 52 50 54 56 53 55 59 62 64 58 60
37 42 39 42 37 38 50 51 50 55 60 63 59 64 54 59 61 65 65 64 64 65 68 71 64 54 49 41 41 46 44 49 51 52 51 54 55 52 57 62 63 61 55 59
41 47 42 41 35 32 40 39 46 53 54 54 57 56 59 63 60 61 62 60 61 63 70 68 69 65 47 42 46 42 47 50 49 49 49 53 56 54 60 63 62 55 56 59
44 47 48 46 37 46 36 45 39 53 54 55 60 58 53 59 64 58 54 56 62 72 71 71 63 49 44 46 43 47 51 50 49 46 48 52 57 58 62 63 63 58 60 63
41 49 55 60 45 42 44 48 47 42 52 59 66 67 68 66 62 72 62 60 67 70 70 60 46 46 46 43 44 50 53 49 46 48 50 56 62 61 65 67 68 67 68 68
42 47 47 63 51 45 37 36 34 35 49 58 60 67 68 58 64 69 75 74 72 74 71 47 45 46 44 47 48 55 51 49 50 54 56 60 66 66 70 73 74 73 74 67
49 52 48 54 53 45 36 33 35 36 35 58 57 60 60 57 60 70 73 70 71 58 51 49 47 46 49 44 46 48 50 54 59 58 60 65 69 69 74 77 80 75 68 66
43 52 52 56 51 48 38 36 36 43 59 57 58 59 67 76 76 72 70 67 55 53 51 49 46 53 51 42 42 43 48 58 58 63 65 67 71 70 72 79 78 74 70 67
42 45 48 47 44 70 66 59 59 53 57 58 61 66 70 72 73 71 67 54 54 50 50 48 50 51 53 45 44 41 55 56 62 64 73 70 68 66 74 79 76 72 71 69
61 57 65 65 70 69 66 65 62 52 56 55 60 65 65 71 69 67 58 52 50 49 47 51 47 47 48 49 44 50 52 54 59 68 68 66 65 68 75 81 80 77 80 76
55 56 70 81 73 63 65 67 66 65 61 62 62 63 66 67 66 57 50 49 49 48 52 50 47 47 49 50 47 51 55 66 65 67 68 66 70 77 80 82 86 82 84 90
55 64 54 52 58 55 61 69 64 65 65 64 68 69 68 66 59 50 49 50 50 50 54 51 51 42 45 49 50 58 61 73 71 64 64 75 79 84 82 77 70 77 90 96
Wind_Speed
3 3 8 10 7 3 3 4 6 4 5 7 11 11 9 8 8 11 9 11 12 13 15 16 15 14 16 16 16 15 15 16 15 15 11 9 7 10 11 11 12 13 14 14
4 7 10 7 7 4 5 6 4 6 8 6 9 9 8 6 6 8 10 12 12 13 12 14 13 14 15 14 13 13 13 14 15 13 11 8 9 8 10 11 13 14 15 15
7 2 9 7 5 6 5 6 10 6 10 8 13 5 5 6 11 9 10 10 11 12 12 11 11 11 11 12 10 10 12 13 12 13 12 11 9 9 12 15 15 16 16 16
5 5 6 5 6 8 7 11 15 19 8 3 7 2 5 8 8 8 9 9 11 11 9 10 10 10 9 8 8 9 10 9 11 13 12 14 13 13 14 15 16 17 17 17
7 9 7 5 7 9 1 10 16 11 5 6 6 4 4 10 7 9 10 12 11 9 9 9 10 8 6 6 7 6 8 9 10 13 16 15 14 14 15 16 17 18 18 19
4 1 4 5 5 8 17 19 9 4 2 2 5 5 5 7 9 12 13 13 12 10 9 10 8 5 6 5 5 5 6 8 11 14 16 15 14 15 19 21 21 22 21 20
2 4 1 3 11 10 2 5 3 2 3 2 2 5 4 3 3 14 18 15 13 11 9 9 7 5 4 3 3 3 5 9 10 13 16 16 14 15 18 21 22 24 23 22
7 6 7 5 6 9 9 3 4 4 4 2 2 4 3 5 3 10 14 14 13 11 8 8 5 4 3 2 4 5 8 9 10 13 14 16 15 16 18 21 22 21 21 21
6 3 1 0 3 4 5 3 3 7 3 2 2 2 4 6 9 12 14 14 13 11 9 7 5 3 3 3 4 6 8 8 9 12 15 15 15 17 19 21 20 20 20 21
5 4 2 2 2 10 2 9 3 2 3 3 2 2 2 8 9 10 12 13 12 11 9 8 5 4 4 6 5 7 7 8 10 11 14 14 14 17 19 20 21 21 22 21
4 1 2 0 3 6 4 3 6 5 2 2 1 3 2 9 13 14 13 12 13 12 10 9 6 4 6 5 6 6 6 8 9 11 14 14 13 17 19 20 20 21 23 22
1 4 5 2 1 0 1 4 3 3 3 2 1 3 7 7 13 13 12 11 11 11 10 9 7 6 5 5 5 6 6 8 9 11 13 14 13 16 20 21 21 23 25 22
7 2 4 2 1 1 6 3 5 7 3 4 3 4 5 11 12 10 14 12 11 12 10 9 7 5 5 5 5 6 7 9 9 11 14 15 14 16 19 21 23 23 25 21
7 4 4 6 4 4 5 3 3 2 3 6 2 8 6 11 12 12 11 12 12 12 10 9 7 6 5 5 5 5 7 9 10 12 14 15 16 16 19 21 23 23 25 23
3 5 4 7 4 6 5 5 4 4 5 1 10 11 13 13 13 11 13 13 13 12 10 8 8 6 7 6 5 6 8 10 11 12 15 16 16 17 20 21 23 24 24 22
3 4 3 8 8 11 9 9 12 8 9 13 14 11 7 10 12 13 13 14 13 11 10 9 9 8 6 5 5 7 9 10 12 13 15 16 16 18 21 21 23 26 24 23
4 6 3 3 2 5 5 2 3 5 3 11 11 8 11 13 12 13 13 13 13 12 10 10 9 7 8 6 6 7 8 10 12 14 16 17 18 20 21 21 23 25 24 22
7 5 3 4 1 1 2 4 4 13 6 5 11 18 15 14 9 9 9 12 12 12 11 11 9 10 7 6 5 5 8 10 12 16 17 18 19 20 21 22 24 24 23 23
5 6 5 5 2 1 1 5 9 8 4 6 13 15 16 15 14 8 6 10 13 15 14 12 11 10 8 5 4 5 7 10 14 17 17 18 19 20 21 21 23 24 23 23
10 9 5 2 4 4 2 6 6 6 4 12 13 19 19 15 7 5 9 17 18 16 14 14 12 9 7 5 6 5 7 11 14 16 17 17 18 19 20 20 22 23 21 22
3 4 4 3 3 2 2 6 7 3 5 18 19 20 19 9 2 18 20 18 17 16 16 14 11 9 7 6 6 8 8 11 12 14 15 16 18 18 18 19 21 23 23 23
4 5 2 3 3 3 3 6 5 3 8 19 18 17 12 15 20 20 20 19 19 18 15 13 12 10 7 7 7 9 11 11 12 14 15 17 17 18 18 19 21 23 25 26
2 3 5 2 2 2 2 2 2 7 17 15 20 16 20 22 20 19 16 19 17 17 15 12 12 11 9 9 9 9 10 11 13 14 16 17 18 18 17 19 21 23 25 26
2 2 4 5 1 2 2 5 4 13 12 19 19 23 22 23 21 19 18 19 18 16 15 13 12 11 10 9 12 12 11 12 14 14 16 17 17 18 18 18 19 22 25 27
2 6 7 4 2 6 4 5 11 16 19 21 22 24 25 23 20 22 21 20 18 16 14 13 12 11 10 9 12 12 12 12 12 13 15 17 16 17 18 17 19 20 20 22
5 7 5 4 12 3 7 10 16 21 21 22 24 20 23 30 25 27 22 20 19 16 15 13 12 12 10 9 10 11 12 12 13 13 15 17 16 16 17 17 16 18 18 19
Wind_Direction
171 167 201 198 194 173 143 102 116 111 133 77 98 112 115 125 125 118 116 117 108 100 98 91 92 92 90 84 77 65 55 50 45 40 29 16 15 16 17 17 13 6 358 347
132 214 211 201 184 151 136 137 119 85 109 93 122 101 113 122 108 117 129 118 115 113 103 97 88 88 79 79 74 67 59 51 43 36 29 21 18 12 12 7 2 358 353 351
170 268 172 171 156 179 196 200 179 144 114 91 135 133 151 95 105 106 114 121 127 128 122 110 90 83 85 83 77 70 59 49 44 40 31 22 9 5 2 360 355 353 351 349
205 165 154 183 210 192 242 225 150 141 159 153 208 170 178 159 128 130 141 143 142 131 121 116 109 92 83 91 79 68 61 50 43 36 29 25 21 12 360 353 350 349 350 346
207 166 170 186 219 174 9 135 134 139 102 140 171 245 115 154 177 174 168 157 148 143 140 125 104 101 101 95 77 73 56 44 35 30 24 19 16 8 356 351 347 345 344 346
166 211 191 172 57 132 123 110 97 88 119 224 158 230 159 187 194 179 169 167 158 151 140 122 112 116 95 84 84 84 52 41 31 24 19 16 11 2 356 352 348 344 341 339
175 223 223 142 83 157 134 158 102 156 199 255 138 191 48 254 225 186 172 167 162 156 152 142 130 110 83 81 109 74 47 40 31 21 15 11 5 1 355 351 344 342 341 338
172 202 188 176 170 184 183 195 165 207 200 151 146 238 79 15 120 148 157 155 153 156 158 139 127 97 100 113 114 56 45 40 28 16 13 8 8 360 356 349 345 341 339 336
165 228 34 153 143 161 171 185 100 103 59 182 141 113 124 93 101 126 140 151 157 161 158 144 135 126 153 129 91 58 47 43 23 15 10 8 6 3 356 352 350 346 342 338
189 121 72 156 134 55 138 135 134 77 155 233 176 212 108 176 157 146 152 160 159 159 151 149 149 150 139 125 89 58 54 38 20 12 7 4 2 1 358 357 358 354 349 345
152 110 142 105 9 148 143 122 66 109 50 224 218 119 38 194 172 168 168 164 164 159 155 153 142 141 132 113 81 60 48 29 16 9 3 1 1 0 1 0 358 354 351 349
153 103 81 87 358 25 75 110 132 113 173 70 31 108 351 205 165 161 157 157 153 151 150 148 138 124 131 107 86 63 37 24 11 4 1 358 355 358 360 358 354 352 352 351
175 42 103 42 110 128 64 41 89 96 108 165 186 128 34 124 134 144 144 144 144 146 148 145 141 131 119 114 87 58 36 16 7 1 357 355 351 354 356 355 352 351 351 352
94 91 136 172 171 119 103 74 88 92 137 149 120 138 143 142 133 133 132 137 142 150 152 153 144 120 114 102 76 53 24 10 2 358 357 353 352 351 351 350 350 351 352 352
92 96 82 43 71 87 91 94 79 91 117 196 150 144 164 158 148 144 139 139 148 159 160 153 137 117 114 97 74 36 17 6 2 355 354 354 353 352 352 350 352 353 355 356
34 118 111 51 63 100 92 84 92 85 109 90 122 119 142 123 121 138 150 156 159 160 157 141 129 117 117 97 63 32 21 12 360 357 355 353 354 353 354 354 355 355 358 359
91 136 104 106 58 110 87 146 126 114 103 139 143 148 145 141 147 155 156 161 159 155 145 137 125 113 113 91 51 39 17 6 7 4 358 358 357 355 356 357 359 360 359 0
120 93 70 125 72 126 29 314 159 116 95 111 108 140 150 137 116 125 152 151 144 139 133 128 123 115 105 81 54 34 13 11 11 6 1 360 0 0 0 1 4 2 3 3
86 115 96 133 113 8 118 169 154 149 152 146 134 126 123 125 109 78 119 138 134 135 129 123 122 116 103 78 47 15 15 18 14 7 2 360 2 3 3 5 5 4 4 4
71 72 103 141 134 183 210 181 165 137 148 167 152 148 148 155 161 150 143 129 125 126 127 125 120 112 92 67 18 26 25 20 12 4 360 1 2 4 4 4 6 4 7 4
67 41 105 134 122 267 240 146 157 195 157 163 164 156 157 160 49 134 134 127 126 126 124 121 117 102 86 57 44 39 25 18 4 1 1 4 6 6 7 9 11 9 8 5
134 126 130 120 107 188 145 124 191 118 121 146 154 152 131 118 124 130 132 131 129 125 126 125 113 100 84 57 44 37 28 13 7 6 9 9 9 10 10 15 16 16 12 9
126 168 157 202 130 46 26 16 46 142 142 149 142 140 135 134 134 136 136 136 134 134 130 126 116 104 79 58 43 36 24 19 11 14 14 12 13 14 17 21 21 19 15 12
72 142 97 157 69 112 74 81 77 139 140 143 141 140 141 136 140 138 140 138 136 137 134 131 118 104 85 63 53 49 34 20 15 18 14 14 16 20 22 27 25 22 17 11
170 139 125 85 98 120 69 97 121 116 122 124 133 142 141 137 142 142 143 142 140 138 134 130 123 114 99 73 59 46 36 23 19 19 17 17 18 20 25 33 29 27 26 21
191 154 174 184 172 125 133 140 140 132 136 136 132 133 142 141 142 145 143 144 143 139 138 130 126 122 109 84 61 44 33 26 25 25 22 21 22 25 28 29 30 29 27 21